This demonstration page uses our WeatherBlox Daily Observations layout. Learn more.

Hourly Observations for April 3, 2018

Temp ( °F °C ) Dew Point ( °F °C ) Humidity (%) Winds ( mph kmh ) Pressure ( in mb ) Visibility ( mi km ) Precip ( " mm )
12:15 am 00:15 Cloudy with Fog 32 0 32 0 100 100 E 18 30 29.62 1003 0.5 0.80467 0 0
12:35 am 00:35 Cloudy with Fog 32 0 32 0 100 100 E 16 26 29.65 1004 0.5 0.80467 0 0
12:55 am 00:55 Cloudy with Light Snow 32 0 32 0 100 100 ENE 17 28 29.65 1004 0.5 0.80467 0 0
1:15 am 01:15 Cloudy with Snow 32 -0.2 32 -0.2 100 100 ENE 15 24 29.65 1004 0.5 0.80467 0 0
1:35 am 01:35 Cloudy with Fog 32 -0.1 32 -0.1 100 100 NE 10 17 29.71 1006 0.5 0.80467 0 0
1:55 am 01:55 Cloudy with Light Snow 32 -0.2 32 -0.2 100 100 NE 17 28 29.68 1005 0.5 0.80467 0 0
2:15 am 02:15 Cloudy with Light Snow 32 -0.2 32 -0.2 100 100 NE 15 24 29.71 1006 0.5 0.80467 0 0
2:35 am 02:35 Cloudy with Mist and Fog 32 -0.2 32 -0.2 100 100 NNE 15 24 29.71 1006 0.75 1.207005 0 0
2:55 am 02:55 Cloudy with Mist and Fog 31 -0.3 31 -0.3 100 100 NNE 18 30 29.71 1006 0.75 1.207005 0 0
3:15 am 03:15 Cloudy with Mist and Fog 31 -0.5 31 -0.5 100 100 N 17 28 29.71 1006 0.75 1.207005 0 0
3:35 am 03:35 Cloudy with Mist and Fog 31 -0.5 31 -0.5 100 100 N 16 26 29.77 1008 1.25 2.011675 0 0
3:55 am 03:55 Cloudy with Mist and Fog 31 -0.5 31 -0.5 100 100 NNE 10 17 29.77 1008 1 1.60934 0 0
4:15 am 04:15 Cloudy with Mist and Fog 31 -0.6 31 -0.6 100 100 N 13 20 29.8 1009 1.25 2.011675 0 0
4:35 am 04:35 Cloudy with Mist and Fog 31 -0.7 31 -0.7 100 100 NNW 13 20 29.83 1010 2 3.21868 0 0
4:55 am 04:55 Cloudy with Mist and Fog 31 -0.6 31 -0.6 100 100 N 9 15 29.83 1010 4 6.43736 0 0
5:15 am 05:15 Cloudy with Mist and Fog 31 -0.6 31 -0.6 100 100 NNW 9 15 29.83 1010 4 6.43736 0 0
5:35 am 05:35 Cloudy with Mist and Fog 31 -0.5 31 -0.5 100 100 N 10 17 29.83 1010 4 6.43736 0 0
5:55 am 05:55 Cloudy with Mist and Fog 31 -0.3 31 -0.3 100 100 NNW 13 20 29.85 1011 4 6.43736 0 0
6:15 am 06:15 Cloudy with Mist and Fog 32 0 32 0 100 100 NNW 13 20 29.85 1011 5 8.0467 0 0
6:35 am 06:35 Cloudy 32 0 32 0 100 100 NNW 14 22 29.88 1012 7 11.26538 0 0
6:55 am 06:55 Cloudy with Light Snow 32 0 32 0 100 100 NNW 13 20 29.88 1012 5 8.0467 0 0
7:15 am 07:15 Cloudy 32 0.1 32 0 99 99 NNW 13 20 29.88 1012 7 11.26538 0 0
7:35 am 07:35 Cloudy 32 0.2 32 0 99 99 NNW 13 20 29.88 1012 7 11.26538 0 0
7:55 am 07:55 Cloudy 33 0.5 32 -0.1 96 96 NNW 20 31 29.91 1013 10 16.0934 0 0
8:15 am 08:15 Cloudy 32 0.2 31 -0.6 94 94 NNW 17 28 29.94 1014 10 16.0934 0 0
8:35 am 08:35 Cloudy 30 -1.2 27 -2.7 90 90 NNW 25 41 29.97 1015 10 16.0934 0 0
8:55 am 08:55 Cloudy 29 -1.9 26 -3.3 90 90 NW 18 30 30.03 1017 10 16.0934 0 0
9:15 am 09:15 Cloudy 27 -2.6 24 -4.3 88 88 NW 23 37 30.06 1018 10 16.0934 0 0
9:35 am 09:35 Cloudy 27 -2.6 24 -4.4 88 88 NW 18 30 30.06 1018 10 16.0934 0 0
9:55 am 09:55 Cloudy 27 -2.8 23 -4.8 86 86 NW 17 28 30.09 1019 10 16.0934 0 0
10:15 am 10:15 Cloudy 28 -2.5 23 -4.9 84 84 NW 21 33 30.09 1019 10 16.0934 0 0
10:35 am 10:35 Cloudy 28 -2 22 -5.4 78 78 NW 28 44 30.12 1020 10 16.0934 0 0
10:55 am 10:55 Cloudy 29 -1.8 21 -5.9 74 74 NW 29 46 30.12 1020 10 16.0934 0 0
11:15 am 11:15 Cloudy 28 -2 21 -6.1 74 74 NW 25 41 30.15 1021 10 16.0934 0 0
11:35 am 11:35 Cloudy 28 -2.1 20 -6.7 71 71 NNW 25 41 30.15 1021 10 16.0934 0 0
11:55 am 11:55 Mostly Cloudy 30 -1.2 21 -6.3 69 69 NW 26 43 30.18 1022 10 16.0934 0 0
12:15 pm 12:15 Sunny 30 -1.3 20 -6.7 67 67 NNW 25 41 30.18 1022 10 16.0934 0 0
12:35 pm 12:35 Mostly Cloudy 30 -1.1 20 -6.4 68 68 NNW 24 39 30.18 1022 10 16.0934 0 0
12:55 pm 12:55 Mostly Cloudy 31 -0.3 21 -6.3 64 64 NNW 26 43 30.18 1022 10 16.0934 0 0
1:15 pm 13:15 Mostly Cloudy 31 -0.4 20 -6.6 63 63 NNW 24 39 30.18 1022 10 16.0934 0 0
1:35 pm 13:35 Partly Cloudy 32 0 20 -6.4 62 62 NW 29 46 30.18 1022 10 16.0934 0 0
1:55 pm 13:55 Partly Cloudy 32 0.1 20 -6.7 61 61 NNW 28 44 30.21 1023 10 16.0934 0 0
2:15 pm 14:15 Partly Cloudy 33 0.6 20 -6.7 58 58 NNW 26 43 30.18 1022 10 16.0934 0 0
2:35 pm 14:35 Partly Cloudy 33 0.8 19 -7.1 56 56 NNW 26 43 30.18 1022 10 16.0934 0 0
2:55 pm 14:55 Sunny 34 1.3 20 -6.8 55 55 NNW 25 41 30.18 1022 10 16.0934 0 0
3:15 pm 15:15 Sunny 35 1.4 19 -7.1 54 54 NNW 24 39 30.18 1022 10 16.0934 0 0
3:35 pm 15:35 Sunny 35 1.5 19 -7.3 52 52 N 22 35 30.21 1023 10 16.0934 0 0
3:55 pm 15:55 Sunny 35 1.8 18 -7.6 50 50 NNW 21 33 30.21 1023 10 16.0934 0 0
4:15 pm 16:15 Sunny 36 2.1 19 -7.3 50 50 NNW 22 35 30.21 1023 10 16.0934 0 0
4:35 pm 16:35 Sunny 35 1.6 19 -7.4 52 52 N 21 33 30.21 1023 10 16.0934 0 0
4:55 pm 16:55 Sunny 35 1.7 18 -7.8 50 50 N 16 26 30.21 1023 10 16.0934 0 0
5:15 pm 17:15 Sunny 35 1.6 18 -7.6 51 51 NNW 17 28 30.21 1023 10 16.0934 0 0
5:35 pm 17:35 Sunny 35 1.8 19 -7.5 51 51 NNW 17 28 30.21 1023 10 16.0934 0 0
5:55 pm 17:55 Sunny 35 1.6 19 -7.5 51 51 NNW 15 24 30.21 1023 10 16.0934 0 0
6:15 pm 18:15 Sunny 35 1.5 19 -7 54 54 NNW 16 26 30.21 1023 10 16.0934 0 0
6:35 pm 18:35 Sunny 34 1.3 20 -6.8 55 55 NNW 14 22 30.21 1023 10 16.0934 0 0
6:55 pm 18:55 Sunny 34 1 19 -7 56 56 N 15 24 30.21 1023 10 16.0934 0 0
7:15 pm 19:15 Sunny 32 0.2 19 -7 59 59 N 13 20 30.27 1025 10 16.0934 0 0
7:35 pm 19:35 Sunny 32 -0.2 20 -6.9 61 61 N 14 22 30.27 1025 10 16.0934 0 0
7:55 pm 19:55 Sunny 30 -1.1 20 -6.7 66 66 N 13 20 30.27 1025 10 16.0934 0 0
8:15 pm 20:15 Clear 29 -1.9 20 -6.9 69 69 N 13 20 30.27 1025 10 16.0934 0 0
8:35 pm 20:35 Clear 28 -2.4 19 -7 71 71 NNE 13 20 30.3 1026 10 16.0934 0 0
8:55 pm 20:55 Clear 27 -2.7 19 -7.1 72 72 NNE 10 17 30.3 1026 10 16.0934 0 0
9:15 pm 21:15 Clear 27 -3 19 -7 74 74 NNE 9 15 30.3 1026 10 16.0934 0 0
9:35 pm 21:35 Clear 26 -3.6 19 -7.5 75 75 NNE 8 13 30.33 1027 10 16.0934 0 0
9:55 pm 21:55 Clear 25 -4.1 19 -7.3 79 79 NNE 10 17 30.33 1027 10 16.0934 0 0
10:15 pm 22:15 Clear 24 -4.2 18 -7.6 77 77 NNE 12 19 30.33 1027 10 16.0934 0 0
10:35 pm 22:35 Clear 24 -4.5 18 -8 77 77 NNE 9 15 30.33 1027 10 16.0934 0 0
10:55 pm 22:55 Clear 23 -5 17 -8.1 79 79 NNE 9 15 30.36 1028 10 16.0934 0 0
11:15 pm 23:15 Clear 22 -5.3 17 -8.4 79 79 NNE 6 9 30.39 1029 10 16.0934 0 0
11:35 pm 23:35 Clear 22 -5.5 16 -8.8 78 78 N 3 6 30.39 1029 10 16.0934 0 0
11:55 pm 23:55 Clear 20 -6.5 16 -9 83 83 N 5 7 30.39 1029 10 16.0934 0 0

Powered by AerisWeather